星链-1620 (STARLINK-1620 )

导读

STARLINK-1620是美国航天科技公司SpaceX星链计划中的一颗低轨卫星,于2020年8月18日发射入轨。星链计划旨在构建全球卫星互联网星座,该卫星与同批次卫星共同拓展星链网络覆盖,为全球多地用户提供宽带互联网接入服务,推动全球太空互联网基础设施建设。

基本信息
目录编号:
46149
目录名称:
STARLINK-1620
国际标识:
2020-057AJ
轨道中心:
EARTH
卫星名称:
星链-1620
卫星全名:
星链-1620 (STARLINK-1620 )
卫星状态:
已陨落 最后检测时间 2024-11-05
发射日期:
2020-08-18 UTC
国别 :
美国 (US)
星等 :
--
轨道信息
数据来源 国际轨道数据
星历时间: 2024-11-05T18:46:28+0800
轨道信息已过期586天
半长轴: 6543.955km
偏心率: 0.0003132
轨道倾角: 53.003°
近地点辐角 75.677°
升交点赤经 301.912°
平近点角 4.489°
近地点: 163.77km
远地点: 167.87km
周期: 87.805分钟
每日圈数: 16.399942
详细信息
固有亮度:
5
最大亮度:
2.5
卫星平台:
Starlink V1.0
覆盖范围:
全球
运营商:
太空探索技术公司
运营商所在国:
美国
制造商(研发单位):
太空探索技术公司
制造商所在国:
美国
使用方式:
暂无
卫星简介
星链(Starlink)计划是由太空探索技术公司(SpaceX)提出的一个巨型低轨卫星互联网星座项目,计划在2019年至2024年间在太空搭建由约1.2万颗卫星组成的“星链”网络,其中1584颗将部署在地球上空550千米处的近地轨道,并从2020年开始工作。该卫星已退役。